Theta_e
324 324 324 324 325 325 326 326 326 327 327 327 327 327 327 327 325 324 322 333 347 365 365 348 351 346 341 337 340 339 324 320 322 320 324 331 326 333 338 332 335 336 339 342 343
323 323 324 324 325 325 325 326 325 325 325 325 326 327 327 327 322 319 340 352 363 366 340 341 336 334 330 331 332 330 323 323 329 329 328 331 330 329 330 333 333 337 341 342 342
323 323 324 324 325 325 325 325 324 324 324 324 325 327 327 327 318 320 352 358 357 358 334 340 338 329 326 330 328 329 323 329 329 329 329 330 329 335 329 328 333 333 337 340 339
323 323 324 325 325 324 324 323 323 323 323 324 325 327 327 324 311 325 353 357 360 337 334 336 334 325 325 325 331 326 331 330 330 331 331 329 333 326 330 331 339 339 340 339 338
322 323 324 324 323 322 323 323 322 322 322 324 325 327 324 318 318 327 358 355 342 331 332 334 328 327 323 327 328 324 329 331 332 330 331 331 329 330 330 333 341 341 340 338 338
322 323 323 322 322 322 323 322 321 321 322 323 325 326 323 312 326 328 328 332 332 331 333 335 329 329 325 326 327 328 329 328 330 330 330 329 330 332 331 335 337 338 338 338 338
322 322 323 321 321 322 322 321 320 321 322 323 326 326 318 316 325 326 328 328 334 337 333 334 333 326 326 326 332 328 325 325 328 329 328 332 328 329 332 334 334 335 336 338 338
321 322 322 321 321 321 320 319 319 321 323 325 329 324 315 325 327 324 327 328 332 337 335 335 332 327 325 330 328 323 324 318 326 326 328 330 322 330 334 332 331 333 334 336 337
321 321 321 321 320 319 318 319 320 325 325 329 322 321 314 327 319 322 324 323 328 331 334 334 330 325 326 323 320 320 314 317 320 328 326 327 321 331 335 332 330 333 333 334 335
321 320 320 320 319 318 317 317 326 323 325 327 324 317 320 316 320 320 325 325 324 327 327 327 326 321 321 319 310 314 315 319 319 324 325 323 324 331 333 332 331 332 333 334 334
321 320 319 319 318 316 318 325 321 319 321 317 317 313 316 320 322 319 324 323 324 322 318 322 318 315 317 321 321 319 317 318 322 325 322 323 323 329 333 332 331 331 333 333 334
320 319 319 318 317 316 318 322 322 322 314 322 323 320 319 320 314 318 322 318 317 313 319 317 314 321 323 321 318 317 318 317 321 326 323 323 323 321 332 332 334 334 332 334 335
320 319 318 316 315 320 323 321 328 326 314 316 319 318 318 318 313 315 318 318 315 313 314 312 316 323 320 319 315 316 316 317 318 322 324 322 322 319 324 331 334 336 336 335 335
320 318 316 314 317 326 322 328 327 327 309 312 315 317 319 318 312 320 320 317 315 312 313 313 318 318 318 317 317 312 321 320 319 317 312 322 304 313 319 323 331 332 335 334 335
319 317 315 314 322 320 324 327 327 323 299 314 314 321 319 314 315 314 321 317 311 313 314 311 313 314 313 317 320 314 320 319 319 316 314 313 311 315 321 319 325 332 334 335 337
318 317 314 323 323 328 328 325 324 307 298 309 314 312 311 313 313 316 315 319 317 313 314 313 317 316 315 318 320 321 318 318 318 317 307 311 312 314 318 317 325 331 334 335 337
316 314 314 323 323 329 327 321 306 301 312 309 310 312 310 310 310 312 311 310 307 304 305 311 311 315 317 314 319 318 315 307 306 305 303 314 310 315 320 323 323 330 333 336 338
312 312 319 325 329 329 322 312 301 308 308 314 312 312 309 311 310 310 310 308 310 309 306 304 303 311 314 314 313 315 315 307 302 301 307 314 309 311 324 327 329 331 332 334 336
311 327 328 329 329 326 315 303 305 310 312 310 312 308 309 311 310 309 309 308 311 310 305 305 306 315 314 315 317 314 312 318 310 311 307 310 315 321 323 324 324 329 332 332 334
319 323 324 330 329 322 310 302 309 314 313 313 307 310 307 310 309 309 308 311 310 313 314 309 304 313 314 315 316 315 318 310 311 303 302 309 308 309 318 321 322 328 331 334 336
321 321 326 331 327 316 305 306 310 316 315 310 309 309 311 310 311 309 308 311 313 313 314 312 308 308 314 311 310 312 310 312 313 311 304 302 307 322 319 324 324 328 333 335 337
322 314 329 330 312 312 308 310 309 313 315 312 313 312 311 311 311 309 308 311 315 314 309 313 309 304 308 315 317 315 313 312 308 309 311 310 309 323 323 325 324 331 334 337 340
318 320 329 325 306 308 312 311 313 312 312 311 309 312 313 311 309 312 313 316 316 313 311 312 307 302 304 309 314 312 313 315 314 313 310 307 306 320 326 326 327 334 338 341 343
319 313 319 320 316 311 312 312 310 315 311 312 311 313 312 311 314 312 313 316 316 314 324 314 308 305 301 306 310 308 310 313 312 310 309 309 311 317 321 329 328 336 341 342 345
319 315 321 315 311 311 312 312 310 309 314 314 310 311 311 309 311 311 314 315 315 320 315 311 305 308 308 309 310 310 310 310 310 312 310 313 312 316 319 325 329 335 338 340 342
317 317 320 317 319 317 309 311 311 313 313 312 310 312 313 310 312 312 316 315 313 318 314 314 306 308 306 309 309 307 310 311 311 312 312 314 313 319 322 321 329 336 339 340 342
325 325 320 311 313 312 314 314 314 315 317 318 315 316 311 316 319 322 321 321 321 320 316 315 309 306 303 308 308 304 308 309 310 313 312 309 315 320 319 320 324 330 338 341 343
Wind_Speed
16 17 17 18 18 17 17 17 18 18 18 18 17 18 17 18 23 15 17 2 4 13 5 13 14 17 17 17 10 14 10 8 6 6 5 7 7 2 11 9 11 6 22 21 24
17 18 18 18 18 18 17 17 17 18 19 18 18 18 17 17 13 17 2 9 9 10 9 15 15 11 14 13 8 2 5 12 12 11 7 17 7 4 3 9 11 20 20 20 22
17 18 18 18 19 18 18 18 18 18 19 19 19 19 18 17 13 7 5 7 10 11 15 19 20 17 6 6 8 7 7 9 10 8 8 16 5 10 6 8 17 17 20 20 20
18 19 18 18 20 19 18 19 19 18 18 19 18 19 21 7 5 6 6 5 9 10 13 15 20 19 2 6 9 7 25 7 5 4 4 13 17 11 14 3 20 19 19 19 19
18 18 18 18 20 20 19 18 18 19 19 18 18 17 13 10 17 9 9 7 10 11 14 16 20 18 6 22 14 2 8 5 5 3 6 0 12 3 10 7 18 17 18 18 18
17 19 19 21 21 21 19 19 19 19 18 18 16 16 8 15 5 11 9 10 14 14 16 19 18 11 12 11 5 10 6 2 4 4 4 2 9 6 13 8 16 16 16 16 17
16 19 19 22 22 22 21 21 21 19 18 17 12 7 12 18 4 3 8 11 15 16 16 18 8 13 17 8 14 28 7 27 6 6 2 4 4 11 12 10 14 14 15 16 16
19 19 18 22 23 23 23 23 22 18 16 14 9 9 10 9 12 14 12 14 13 13 14 16 10 14 20 16 11 16 18 6 7 6 8 5 4 14 12 11 14 15 14 15 15
17 19 20 19 21 22 24 25 22 16 11 10 7 9 15 3 11 13 15 15 16 16 15 12 10 16 20 14 10 8 16 8 6 4 2 8 8 14 13 13 12 15 14 14 14
16 18 20 20 21 21 26 25 10 8 7 9 11 11 13 12 10 14 15 17 16 17 16 16 13 16 14 10 4 14 11 3 6 10 4 9 6 14 12 10 15 13 16 14 15
17 19 20 21 22 20 16 6 6 8 11 15 5 13 4 7 4 6 11 14 17 16 17 16 14 17 14 11 13 14 3 9 12 6 5 10 3 16 14 10 13 14 15 16 16
18 20 21 23 24 23 8 8 8 11 12 17 22 19 17 1 8 15 14 15 17 17 18 17 18 20 19 1 5 17 9 2 8 12 8 4 7 24 12 13 12 12 16 16 16
19 21 22 27 29 11 12 12 8 13 10 16 21 21 18 14 14 13 20 18 18 19 18 18 19 23 13 14 8 17 11 9 8 14 7 4 10 21 25 18 12 15 14 18 19
18 20 23 30 7 11 11 6 8 10 8 14 13 10 15 18 19 19 18 15 17 20 20 18 19 21 13 17 7 19 7 11 10 8 4 21 7 14 19 26 13 15 16 15 18
17 18 19 8 12 10 11 10 10 9 8 13 12 5 9 14 5 20 17 16 21 19 15 16 18 17 18 21 6 17 11 6 15 11 5 9 6 6 12 27 18 17 19 16 18
18 18 17 3 9 15 12 10 9 8 11 10 10 10 15 18 20 13 17 12 16 20 20 19 19 16 18 23 12 18 10 16 19 16 7 10 8 4 8 16 15 16 17 17 19
20 20 9 8 9 13 10 8 8 11 5 8 9 13 15 15 18 16 17 17 17 14 17 19 19 18 16 18 18 15 14 11 15 8 7 13 3 13 21 22 27 11 16 18 16
23 29 9 10 10 13 8 9 10 13 20 5 5 6 14 16 17 20 15 15 19 21 13 16 16 21 16 18 17 17 16 11 7 6 15 11 2 10 24 19 11 11 7 5 14
28 10 6 9 13 9 8 11 13 17 10 9 8 10 12 13 15 18 20 18 19 19 21 15 18 13 20 20 14 18 18 13 20 18 6 5 5 5 24 20 22 10 8 5 5
11 11 13 10 10 8 9 16 20 16 4 9 11 19 14 16 16 16 19 17 19 20 19 20 16 15 13 15 16 19 18 13 10 13 14 11 7 11 21 9 25 18 11 10 9
7 7 9 9 7 8 11 15 18 19 3 9 16 19 11 16 14 16 16 18 15 19 18 17 17 18 14 10 15 12 15 18 15 2 5 7 10 13 13 17 10 15 15 12 12
8 9 9 8 8 10 13 18 19 16 3 9 11 14 14 17 16 7 19 16 13 8 15 16 10 15 19 12 15 18 16 19 11 12 10 8 8 12 16 15 6 12 13 14 13
7 11 10 9 10 12 18 20 20 8 11 15 12 14 15 15 14 12 14 12 7 7 9 14 11 13 18 15 15 15 18 14 16 17 16 6 6 21 6 8 1 14 12 10 11
7 6 8 8 12 18 18 13 14 13 12 18 13 14 14 11 13 11 14 9 5 5 6 8 15 13 14 14 13 19 19 17 20 16 15 5 5 11 7 6 7 12 13 12 10
6 7 6 6 11 15 18 17 10 12 11 10 13 15 15 12 15 15 18 19 12 9 9 12 17 17 19 20 19 15 15 19 20 19 19 7 6 11 2 10 10 15 14 14 13
7 9 12 13 19 17 10 13 14 12 11 11 12 14 17 18 18 13 14 14 13 11 13 15 16 16 18 20 20 20 17 17 19 20 21 19 14 15 18 18 12 15 16 13 14
8 13 8 10 13 12 11 10 12 11 15 7 14 13 17 9 9 14 8 18 4 2 6 7 13 15 17 19 20 17 17 19 15 18 19 17 15 10 3 4 7 12 16 17 16
Wind_Direction
2 359 357 354 352 351 348 344 343 340 335 329 325 322 325 325 310 290 263 120 170 181 246 264 218 251 244 254 101 128 160 222 185 180 237 131 107 70 20 88 72 24 136 150 137
0 358 354 349 348 345 344 341 340 336 332 327 324 321 325 330 299 280 195 146 149 179 235 251 271 299 275 316 342 153 182 42 121 186 221 120 104 150 112 117 108 98 118 146 151
358 354 347 340 340 341 342 339 335 332 328 324 322 319 319 318 289 241 145 170 167 189 253 288 299 277 295 23 318 288 12 39 68 11 358 76 302 107 240 95 132 133 142 156 158
354 349 337 338 341 339 338 336 329 326 322 318 317 318 314 270 306 117 162 197 173 226 249 268 271 274 287 181 265 70 299 8 353 21 287 140 88 321 125 275 149 131 148 159 165
351 341 338 339 339 335 329 324 322 321 315 312 316 325 320 238 253 143 168 167 182 210 239 259 283 302 267 106 250 4 272 159 127 287 3 11 95 333 98 112 114 128 148 169 168
342 338 336 338 336 330 320 319 318 315 309 305 310 316 250 268 290 147 215 173 224 209 239 246 266 339 296 316 87 204 288 5 111 184 167 37 121 159 101 117 113 137 156 172 178
337 335 335 336 332 325 317 316 313 308 300 294 301 287 264 248 317 275 216 228 216 232 241 255 322 309 296 334 15 7 7 25 177 191 163 75 265 134 105 121 133 155 162 169 184
340 332 332 334 329 321 314 314 310 305 293 282 279 255 262 235 249 253 241 225 248 245 263 292 311 285 278 55 36 31 303 130 209 196 131 184 245 117 129 144 159 158 167 166 184
333 331 328 322 323 315 311 307 302 292 264 274 235 228 255 139 231 237 240 233 229 234 244 261 279 272 275 84 60 184 270 205 133 196 248 203 348 140 153 158 166 160 165 173 181
329 327 323 318 315 316 315 293 286 297 223 221 261 268 236 243 224 217 222 231 240 219 231 241 246 255 253 135 226 241 223 139 247 172 218 285 178 148 161 184 156 180 164 180 176
325 324 323 318 314 319 329 273 216 192 231 248 194 242 128 232 350 235 215 215 243 252 226 227 246 248 255 225 220 280 46 20 339 127 265 316 242 163 161 191 166 171 173 176 183
325 324 325 321 316 313 279 263 49 336 293 256 238 249 264 267 271 216 224 226 217 238 222 235 231 258 277 111 327 285 95 19 252 268 240 220 23 358 160 187 195 187 172 178 190
325 326 331 325 316 284 243 296 341 316 282 277 229 227 228 227 243 241 203 214 223 227 241 233 242 240 277 288 268 255 349 175 225 242 114 50 358 350 334 309 204 181 186 179 185
324 330 335 331 297 332 281 21 292 316 278 246 180 222 216 214 236 240 203 222 229 235 228 249 243 267 234 252 244 279 182 297 287 259 271 47 359 323 319 313 206 211 191 192 175
319 322 322 313 307 290 2 322 323 271 277 122 150 84 182 196 283 198 231 203 238 230 243 245 238 252 260 269 226 268 301 324 289 297 72 77 150 247 251 265 271 202 194 198 176
310 312 334 281 213 259 297 295 274 237 247 162 144 196 216 200 248 170 208 228 231 249 256 252 272 247 248 262 245 273 298 286 269 245 29 324 260 237 233 223 249 233 207 195 182
308 300 294 291 255 346 316 273 229 246 121 182 193 193 206 203 221 232 188 209 222 225 240 251 241 259 265 256 262 236 253 273 274 77 211 230 202 329 212 236 236 184 194 188 184
311 304 242 233 248 272 271 241 245 231 247 74 352 210 213 221 201 228 202 221 218 245 251 224 238 221 229 248 254 238 245 265 264 164 233 90 113 234 237 233 91 141 161 190 183
309 289 225 242 219 245 247 231 227 264 342 340 263 237 250 243 233 207 213 228 226 212 250 259 250 240 205 230 236 256 262 252 271 301 320 145 235 223 348 27 350 124 135 162 190
318 290 261 172 167 218 236 251 257 291 24 332 279 277 242 204 227 227 222 222 241 230 218 261 282 290 207 204 224 239 272 268 245 266 285 169 171 177 230 118 204 209 172 153 160
258 254 112 145 183 228 236 241 252 257 194 263 271 296 285 291 209 220 243 233 220 240 232 234 256 274 261 186 235 217 240 263 281 90 289 284 216 156 141 204 211 140 146 155 157
285 268 132 170 212 228 238 245 269 296 199 238 277 298 313 311 309 227 244 224 228 212 261 230 246 253 264 230 209 253 233 235 249 235 224 261 35 179 179 210 145 145 140 152 158
279 271 150 211 235 236 225 245 262 285 265 263 240 254 263 279 285 288 287 271 271 263 223 258 217 257 266 245 205 217 246 255 249 268 280 127 266 278 158 112 48 124 131 144 149
277 260 191 196 252 283 287 256 244 227 254 281 268 267 277 278 273 284 276 269 232 288 49 302 268 229 248 254 252 209 226 247 256 250 259 222 221 225 38 132 126 126 139 153 153
245 254 12 275 213 232 266 286 286 248 193 237 253 273 272 264 254 252 248 282 165 201 234 249 252 258 260 268 278 272 222 230 240 261 266 275 139 115 32 108 213 157 158 165 171
293 346 348 299 296 301 252 257 285 267 260 254 225 268 230 245 271 283 309 282 275 201 205 226 245 258 260 267 267 270 270 230 220 244 262 273 279 168 161 215 183 160 161 175 176
356 334 295 293 292 285 264 280 280 270 293 292 290 299 250 286 303 331 318 302 26 104 36 315 249 233 245 243 251 259 251 262 259 226 239 256 262 253 301 267 278 156 166 175 179